[[{"header":{"parameterUnit":"m.s-1","parameterCategory":1,"la1":30.2991,"la2":30.254,"lo1":-89.0895,"lo2":-89.0444,"dy":0.0017,"dx":0.0017,"nx":28,"ny":28,"refTime":"2023-05-23T21:00:00:Z","depth":0,"parameterNumber":2,"parameterNumberName":"U-component_of_WINDS"},"data":[0,0,0,0,0,0,0,0,0,0,0,0,0,0,0,0,0,0,0,0,0,0,0,0,0,0,0,0,0,0,0,0,0,0,0,0,0,0,0,0,0,0,0,0,0,0,0,0,0,0,0,0,0,0,0,0,0,0,-3.8177,-3.8176,0,-3.8063,-3.8062,-3.806,-3.7836,-3.7831,-3.7827,-3.7823,-3.7711,-3.7712,-3.7713,0,0,0,0,0,0,0,0,0,0,0,0,0,-3.8207,-3.8208,-3.8177,-3.8176,-3.8175,-3.8063,-3.8062,-3.806,-3.7836,-3.7831,-3.7826,-3.7821,-3.7711,-3.7712,-3.7714,0,0,0,0,0,0,0,0,0,0,0,0,0,-3.8154,-3.8208,-3.8178,-3.8049,-3.8037,-3.8063,-3.8062,-3.806,-3.7838,-3.7831,-3.7824,-3.7818,-3.771,-3.7712,-3.7714,-3.7858,0,0,-3.7719,-3.772,0,0,0,0,0,0,0,0,-3.8157,-3.8153,-3.807,-3.8058,-3.8044,-3.7956,-3.8031,-3.7992,-3.7839,-3.7913,-3.7822,-3.7815,-3.7799,-3.7793,-3.7786,-3.7853,-3.7848,-3.7719,-3.772,-3.7721,-3.7722,0,0,0,0,0,0,0,-3.8161,-3.8157,-3.8132,-3.8069,-3.8053,-3.7999,-3.7984,-3.8023,-3.7895,-3.7906,-3.789,-3.7879,-3.779,-3.7785,-3.7782,-3.7846,-3.7719,-3.7721,-3.7722,-3.7723,-3.8024,-3.8031,0,0,0,0,0,0,-3.8183,-3.8161,-3.8136,-3.8129,-3.8085,-3.8004,-3.7987,-3.7992,-3.7894,-3.7872,-3.7885,-3.7869,-3.7785,-3.778,-3.7777,-3.7938,-3.7721,-3.7723,-3.7724,-3.8017,-3.8026,-3.8033,0,0,0,0,0,0,-3.8184,-3.8183,-3.814,-3.814,-3.8131,-3.8011,-3.8017,-3.7993,-3.7987,-3.7877,-3.7854,-3.7902,-3.778,-3.7774,-3.7839,-3.7931,-3.7723,-3.7725,-3.8009,-3.802,-3.803,-3.8263,0,0,0,0,0,0,-3.8186,-3.8185,-3.8237,-3.8143,-3.8132,-3.8204,-3.8023,-3.7995,-3.799,-3.7968,-3.7888,-3.7868,-3.7774,-3.7837,-3.7841,-3.793,-3.7726,-3.8,-3.8014,-3.8026,-3.8246,-3.828,-3.8308,0,0,0,0,0,-3.8188,-3.8309,-3.8241,-3.8239,-3.8194,-3.8209,-3.8203,-3.809,-3.7998,-3.805,-3.798,-3.7871,-3.7921,-3.7846,-3.7847,-3.7939,-3.7994,-3.801,-3.8025,-3.8232,-3.8273,-3.8308,0,0,0,0,0,0,-3.8419,-3.8294,-3.8217,-3.8311,-3.8272,-3.8171,-3.8233,-3.8138,-3.8126,-3.8106,-3.7969,-3.7953,-3.8035,-3.7993,-3.7912,-3.8072,-3.794,-3.7957,-3.8097,-3.8135,-3.8165,-3.8173,-3.7728,0,0,0,0,0,-3.848,-3.8501,-3.8391,-3.8485,-3.8469,-3.8356,-3.8358,-3.8274,-3.8229,-3.8212,-3.8146,-3.8109,-3.8115,-3.8123,-3.8123,-3.8239,-3.8218,-3.8303,-3.8334,-3.836,-3.8376,-3.8433,-3.8469,-3.8085,-3.8085,-3.8084,0,0,-3.8608,-3.8542,-3.8564,-3.8529,-3.8489,-3.8515,-3.8343,-3.8378,-3.8395,-3.8218,-3.8273,-3.8225,-3.8173,-3.8264,-3.8301,-3.8231,-3.8478,-3.838,-3.8402,-3.8403,-3.8453,-3.849,-3.8522,-3.8095,-3.8093,-3.8092,0,0,-3.8852,-3.8806,-3.8877,-3.884,-3.8781,-3.8705,-3.8723,-3.8636,-3.8596,-3.8649,-3.8516,-3.8537,-3.8552,-3.852,-3.8506,-3.874,-3.8638,-3.8744,-3.8906,-3.8964,-3.8994,-3.902,-3.9103,-3.9134,-3.876,-3.8761,-3.8761,0,-3.9019,-3.905,-3.8927,-3.8969,-3.8958,-3.8797,-3.8869,-3.884,-3.8786,-3.8782,-3.8705,-3.8719,-3.8674,-3.8754,-3.8811,-3.8806,-3.8822,-3.8752,-3.9,-3.9025,-3.9047,-3.9124,-3.9156,-3.8774,-3.8772,-3.8771,-3.877,0,-3.9257,-3.9282,-3.9347,-3.9296,-3.9292,-3.935,-3.9236,-3.9248,-3.9166,-3.9098,-3.9155,-3.9094,-3.9079,-3.9092,-3.9013,-3.9162,-3.912,-3.9024,-3.8888,-3.9099,-3.9169,-3.9198,-3.8793,-3.8788,-3.8784,-3.8781,0,0,-3.9643,-3.9522,-3.9548,-3.9523,-3.9446,-3.9463,-3.9514,-3.9497,-3.951,-3.9478,-3.9517,-3.9534,-3.9443,-3.9428,-3.9344,-3.9395,-3.9583,-3.9291,-3.9288,-3.9347,-3.9742,-3.9814,-3.985,-3.9515,-3.9521,-3.9525,-3.9746,0,-3.987,-3.9947,-3.9838,-3.994,-3.9961,-3.9809,-3.9853,-3.9812,-3.9751,-3.976,-3.9693,-3.9706,-3.9587,-3.9576,-3.962,-3.9551,-3.966,-3.9533,-3.9551,-3.9553,-3.9567,-3.9887,-3.9963,-4.0174,-3.9773,-3.9777,-3.978,0,-4.0144,-4.0123,-4.0228,-4.0144,-4.0149,-4.019,-4.0166,-4.0177,-4.0128,-4.0079,-4.0063,-3.9962,-4.0007,-3.9876,-3.9936,-3.9853,-3.9854,-3.9821,-3.9827,-3.9823,-3.9679,-3.9891,-4.0239,-4.0271,-3.9822,-3.9819,-3.9816,0,-4.0413,-4.0412,-4.0474,-4.0457,-4.0361,-4.0394,-4.0356,-4.03,-4.0297,-4.0276,-4.0273,-4.026,-4.0252,-4.0244,-4.0143,-4.0057,-4.0216,-4.0077,-4.0177,-4.018,-4.0216,-4.0215,-4.0569,-4.022,-4.022,-4.0219,-4.0219,0,-4.0677,-4.0747,-4.0593,-4.0631,-4.0705,-4.058,-4.0657,-4.0604,-4.0555,-4.0581,-4.045,-4.0477,-4.0342,-4.0356,-4.0278,-4.0339,-4.0337,-4.03,-4.0278,-4.031,-4.0315,-4.0308,-4.029,-4.0227,-4.0226,-4.0224,-4.0223,0,-4.0989,-4.0889,-4.0946,-4.0851,-4.0829,-4.0887,-4.0806,-4.0838,-4.0768,-4.0803,-4.0804,-4.0695,-4.0704,-4.0603,-4.0593,-4.054,-4.0637,-4.059,-4.0653,-4.0638,-4.0743,-4.0735,-4.1104,-4.1145,-4.0773,-4.0777,-4.078,0,-4.1163,-4.1212,-4.1122,-4.1129,-4.1097,-4.1111,-4.1106,-4.0986,-4.0987,-4.0934,-4.0973,-4.0971,-4.0962,-4.0984,-4.0905,-4.0897,-4.0848,-4.0978,-4.0846,-4.0877,-4.0848,-4.0845,-4.0849,-4.1005,-4.101,-4.1014,-4.1017,0,-4.1481,-4.1429,-4.1427,-4.1408,-4.1406,-4.1386,-4.1357,-4.1371,-4.124,-4.1248,-4.1255,-4.1249,-4.1237,-4.1237,-4.1214,-4.1175,-4.1075,-4.1059,-4.1082,-4.1115,-4.1148,-4.113,-4.0727,-4.1051,-4.1048,-4.1045,-4.1043,-4.1042,-4.1728,-4.1764,-4.1706,-4.1708,-4.1674,-4.165,-4.1675,-4.1608,-4.1611,-4.1591,-4.1521,-4.154,-4.1489,-4.1447,-4.1419,-4.1432,-4.1369,-4.1402,-4.141,-4.142,-4.1438,-4.1148,-4.1428,-4.1427,-4.1426,-4.1425,-4.1424,0,-4.2038,-4.1993,-4.1996,-4.1959,-4.1961,-4.1866,-4.1829,-4.1838,-4.1855,-4.1816,-4.181,-4.1818,-4.1817,-4.1739,-4.1728,-4.1755,-4.1708,-4.1756,-4.1752,-4.1744,-4.1496,-4.1477,-4.1793,-4.1793,-4.1793,-4.1793,-4.1793,-4.1793,-4.2199,-4.2255,-4.2197,-4.2236,-4.219,-4.2207,-4.2194,-4.2172,-4.214,-4.2154,-4.2152,-4.21,-4.2045,-4.203,-4.2025,-4.2002,-4.2004,-4.2067,-4.2029,-4.1798,-4.1762,-4.1728,-4.1709,-4.2069,-4.2069,-4.2275,-4.2277,-4.2278]},{"header":{"parameterUnit":"m.s-1","parameterCategory":1,"la1":30.2991,"la2":30.254,"lo1":-89.0895,"lo2":-89.0444,"dy":0.0017,"dx":0.0017,"nx":28,"ny":28,"refTime":"2023-05-23T21:00:00:Z","depth":0,"parameterNumber":3,"parameterNumberName":"V-component_of_WINDS"},"data":[0,0,0,0,0,0,0,0,0,0,0,0,0,0,0,0,0,0,0,0,0,0,0,0,0,0,0,0,0,0,0,0,0,0,0,0,0,0,0,0,0,0,0,0,0,0,0,0,0,0,0,0,0,0,0,0,0,0,-4.1269,-4.1269,0,-4.1327,-4.1328,-4.1329,-4.1287,-4.1286,-4.1284,-4.1282,-4.1339,-4.1342,-4.1345,0,0,0,0,0,0,0,0,0,0,0,0,0,-4.1116,-4.1119,-4.1269,-4.1269,-4.127,-4.1327,-4.1328,-4.1329,-4.1288,-4.1285,-4.1283,-4.1281,-4.1338,-4.1341,-4.1345,0,0,0,0,0,0,0,0,0,0,0,0,0,-4.1179,-4.112,-4.1268,-4.1256,-4.1256,-4.1327,-4.1328,-4.1329,-4.1288,-4.1285,-4.1283,-4.128,-4.1336,-4.1341,-4.1346,-4.1431,0,0,-4.1361,-4.1363,0,0,0,0,0,0,0,0,-4.1175,-4.1185,-4.1257,-4.1257,-4.1257,-4.1297,-4.1295,-4.1363,-4.1289,-4.1276,-4.1282,-4.1279,-4.1327,-4.1332,-4.1349,-4.1434,-4.1436,-4.1361,-4.1364,-4.1366,-4.1367,0,0,0,0,0,0,0,-4.1171,-4.1182,-4.1292,-4.1259,-4.1258,-4.1246,-4.1252,-4.1308,-4.1316,-4.1277,-4.1274,-4.1282,-4.1326,-4.1345,-4.135,-4.1437,-4.1361,-4.1365,-4.1368,-4.137,-4.1591,-4.1594,0,0,0,0,0,0,-4.1168,-4.1178,-4.129,-4.1293,-4.1209,-4.1252,-4.1258,-4.1287,-4.1315,-4.1317,-4.1284,-4.1279,-4.1338,-4.1345,-4.1352,-4.1452,-4.1366,-4.137,-4.1373,-4.1588,-4.1592,-4.1595,0,0,0,0,0,0,-4.1165,-4.1179,-4.1287,-4.1235,-4.1248,-4.1257,-4.129,-4.129,-4.1308,-4.1321,-4.1322,-4.1302,-4.1336,-4.1345,-4.1411,-4.1453,-4.1373,-4.1377,-4.1585,-4.1589,-4.1593,-4.1653,0,0,0,0,0,0,-4.1161,-4.1178,-4.1211,-4.1236,-4.1251,-4.1347,-4.1293,-4.1293,-4.1317,-4.1312,-4.1338,-4.1339,-4.1334,-4.1404,-4.1416,-4.1458,-4.1381,-4.1581,-4.1587,-4.1592,-4.1647,-4.1659,-4.1669,0,0,0,0,0,-4.1156,-4.1226,-4.1213,-4.1227,-4.1294,-4.135,-4.1358,-4.1352,-4.1321,-4.1354,-4.1361,-4.1338,-4.1447,-4.1411,-4.1424,-4.1469,-4.1578,-4.1585,-4.1592,-4.1642,-4.1657,-4.1669,0,0,0,0,0,0,-4.1204,-4.1229,-4.1215,-4.1296,-4.1321,-4.1343,-4.1384,-4.1368,-4.1402,-4.1395,-4.1385,-4.1392,-4.146,-4.1471,-4.1431,-4.1551,-4.1507,-4.1517,-4.1542,-4.1555,-4.1566,-4.1561,-4.1385,0,0,0,0,0,-4.1225,-4.127,-4.1288,-4.1357,-4.1371,-4.1375,-4.14,-4.1393,-4.1418,-4.1428,-4.1441,-4.1465,-4.1505,-4.1531,-4.1568,-4.1649,-4.1653,-4.1686,-4.1697,-4.1705,-4.1713,-4.1754,-4.1769,-4.1617,-4.1617,-4.1617,0,0,-4.1267,-4.1286,-4.1314,-4.1367,-4.1386,-4.1431,-4.1385,-4.1435,-4.1467,-4.1436,-4.1498,-4.1509,-4.1535,-4.1608,-4.1641,-4.1619,-4.1756,-4.1714,-4.1721,-4.1724,-4.1763,-4.1777,-4.179,-4.1621,-4.1621,-4.162,0,0,-4.1366,-4.1386,-4.1444,-4.1464,-4.1494,-4.1496,-4.151,-4.1534,-4.154,-4.1603,-4.158,-4.1618,-4.1687,-4.1706,-4.1724,-4.183,-4.1809,-4.1842,-4.1898,-4.1938,-4.195,-4.1961,-4.1996,-4.2009,-4.185,-4.185,-4.185,0,-4.1414,-4.1482,-4.1476,-4.1528,-4.1551,-4.1525,-4.1583,-4.1602,-4.1642,-4.1657,-4.1633,-4.1718,-4.1734,-4.181,-4.1836,-4.1852,-4.1866,-4.1838,-4.1949,-4.196,-4.1969,-4.2003,-4.2016,-4.1854,-4.1853,-4.1853,-4.1853,0,-4.1538,-4.1586,-4.163,-4.1669,-4.1697,-4.1752,-4.1752,-4.1781,-4.1772,-4.1777,-4.184,-4.1858,-4.1898,-4.1916,-4.1907,-4.199,-4.1976,-4.1951,-4.1906,-4.1987,-4.2019,-4.2032,-4.1859,-4.1858,-4.1857,-4.1856,0,0,-4.1669,-4.1705,-4.1721,-4.1737,-4.1768,-4.1803,-4.1856,-4.1895,-4.1919,-4.1947,-4.1989,-4.2048,-4.2024,-4.2045,-4.2039,-4.2075,-4.2154,-4.2044,-4.2045,-4.2062,-4.2244,-4.2261,-4.2276,-4.2141,-4.2143,-4.2145,-4.2241,0,-4.1768,-4.1861,-4.1857,-4.1943,-4.1985,-4.1961,-4.2007,-4.2029,-4.2035,-4.207,-4.2076,-4.2116,-4.2084,-4.2096,-4.213,-4.2137,-4.219,-4.213,-4.2178,-4.218,-4.217,-4.2293,-4.2312,-4.2401,-4.2253,-4.2255,-4.2257,0,-4.1896,-4.1929,-4.202,-4.2042,-4.2059,-4.2101,-4.2135,-4.2171,-4.2195,-4.2196,-4.222,-4.2206,-4.2257,-4.2213,-4.2282,-4.2241,-4.226,-4.2266,-4.227,-4.2272,-4.2222,-4.2297,-4.243,-4.2442,-4.2277,-4.2275,-4.2274,0,-4.198,-4.2047,-4.2109,-4.2124,-4.2153,-4.2182,-4.2194,-4.2216,-4.2239,-4.227,-4.2284,-4.232,-4.2339,-4.2366,-4.2362,-4.233,-4.2431,-4.2386,-4.2431,-4.2431,-4.2452,-4.245,-4.2588,-4.2468,-4.2468,-4.2468,-4.2468,0,-4.209,-4.2145,-4.2147,-4.2185,-4.2246,-4.224,-4.23,-4.2309,-4.2328,-4.2366,-4.2348,-4.2384,-4.2377,-4.2413,-4.241,-4.2466,-4.2475,-4.2476,-4.2474,-4.2476,-4.2476,-4.2487,-4.248,-4.2471,-4.2471,-4.247,-4.2469,0,-4.2193,-4.2196,-4.2262,-4.2283,-4.229,-4.2334,-4.2351,-4.2386,-4.239,-4.2438,-4.2449,-4.2455,-4.2495,-4.2494,-4.254,-4.2538,-4.2606,-4.2599,-4.2598,-4.2596,-4.264,-4.2635,-4.2788,-4.2806,-4.2677,-4.2678,-4.2679,0,-4.2261,-4.2304,-4.233,-4.2354,-4.2369,-4.2409,-4.2433,-4.2428,-4.2453,-4.2484,-4.2514,-4.2553,-4.2584,-4.2649,-4.2656,-4.2691,-4.2682,-4.2733,-4.2687,-4.2687,-4.268,-4.2677,-4.268,-4.2742,-4.2743,-4.2744,-4.2745,0,-4.2382,-4.2382,-4.2417,-4.2454,-4.2483,-4.2511,-4.2536,-4.2557,-4.2555,-4.2584,-4.2626,-4.265,-4.2696,-4.2734,-4.2767,-4.2778,-4.2761,-4.276,-4.2772,-4.2773,-4.2771,-4.277,-4.2621,-4.2756,-4.2755,-4.2754,-4.2754,-4.2753,-4.2468,-4.2504,-4.2528,-4.2567,-4.2586,-4.2611,-4.2644,-4.2652,-4.2687,-4.2726,-4.2721,-4.2766,-4.2787,-4.283,-4.2844,-4.2879,-4.286,-4.2878,-4.2882,-4.2886,-4.289,-4.2767,-4.2885,-4.2885,-4.2884,-4.2884,-4.2884,0,-4.2586,-4.26,-4.2637,-4.2674,-4.2704,-4.2687,-4.2714,-4.2741,-4.2781,-4.2804,-4.2834,-4.2881,-4.2917,-4.2928,-4.2962,-4.2988,-4.298,-4.2997,-4.2993,-4.2996,-4.2905,-4.2891,-4.3002,-4.3002,-4.3002,-4.3002,-4.3002,-4.3002,-4.2651,-4.2709,-4.2712,-4.2779,-4.2792,-4.2837,-4.2854,-4.2875,-4.2893,-4.2946,-4.2976,-4.2983,-4.3,-4.3036,-4.3067,-4.3069,-4.3082,-4.3101,-4.3099,-4.3014,-4.3002,-4.2991,-4.2977,-4.3104,-4.3105,-4.3186,-4.3187,-4.3188]}]]